Location: Morlupo
(42.1333°N, 12.5000°E)
Time: 16:26:35
(UTC+00:00)

Cosmos 1867 - Pass Details

Date: 18 September 2020
Orbit: 777 x 799 km, 65.0° (Epoch: 20 October)

Event Time Altitude Azimuth Distance (km) Brightness Sun altitude
Rises 18:27:24 0° 329° (NNW) 3,311 7.5 -14.3°
Reaches altitude 10° 18:29:52 10° 332° (NNW) 2,378 6.7 -14.7°
Maximum altitude 18:35:19 64° 54° (NE) 885 3.6 -15.7°
Enters shadow 18:38:36 24° 130° (SE) 1,604 4.6 -16.3°
